Location: Kendal
(54.3280°N, 2.7463°W)
Time: 18:08:20
(UTC+01:00)

ISS - Visible Passes

Search period start: 13 May 2026 00:00
Search period end: 23 May 2026 00:00
Orbit: 414 x 424 km, 51.6° (Epoch: 13 May)

Date Brightness Start Highest point End Pass type
(mag) Time Alt. Az. Time Alt. Az. Time Alt. Az.
13 May -2.8 00:44:06 10° W 00:46:22 32° SW 00:46:22 32° SW visible
13 May -3.6 22:19:54 10° WSW 22:23:09 50° S 22:26:25 10° E visible
13 May -3.5 23:56:29 10° W 23:59:42 46° SSW 00:00:22 39° SSE visible
14 May -3.6 23:08:52 10° W 23:12:08 51° S 23:14:19 19° ESE visible
15 May -2.0 00:45:43 10° W 00:47:15 20° WSW 00:47:15 20° WSW visible
15 May -3.6 22:21:16 10° W 22:24:32 54° S 22:27:49 10° ESE visible
15 May -3.0 23:57:59 10° W 00:01:02 32° SSW 00:01:11 32° SSW visible
16 May -3.2 23:10:18 10° W 23:13:27 39° SSW 23:15:06 23° SE visible
17 May -1.3 00:47:44 10° WSW 00:48:01 11° WSW 00:48:01 11° WSW visible
17 May -3.4 22:22:39 10° W 22:25:52 46° SSW 22:29:01 10° ESE visible
17 May -2.1 23:59:41 10° W 00:01:57 19° SW 00:01:57 19° SW visible
18 May -2.5 23:11:49 10° W 23:14:39 25° SSW 23:15:52 20° S visible
19 May -2.8 22:24:04 10° W 22:27:06 32° SSW 22:29:48 12° SE visible
20 May -1.2 00:02:36 10° SW 00:02:44 10° SW 00:02:44 10° SW visible
20 May -1.7 23:13:45 10° WSW 23:15:40 15° SW 23:16:41 13° SSW visible
21 May -2.0 22:25:41 10° W 22:28:10 20° SSW 22:30:40 10° SSE visible
